Regional Weather Roundup
Issued by NWS

Home | Current Version | Previous Version | Graphics & Text | Print | Product List | Glossary On
Versions: 1 2 3 4 5 6 7 8 9 10 11 12 13 14 15 16 17 18 19 20 21 22 23 24 25 26 27 28 29 30 31 32 33 34 35 36 37 38 39 40 41 42 43 44 45 46 47 48 49 50
000
ASUS43 KLOT 302310
RWRIL

ILLINOIS REGIONAL WEATHER ROUNDUP
NATIONAL WEATHER SERVICE CHICAGO/ROMEOVILLE IL
600 PM CDT SAT AUG 30 2014

NOTE: "FAIR" INDICATES FEW OR NO CLOUDS BELOW 12,000 FEET WITH NO
SIGNIFICANT WEATHER AND/OR OBSTRUCTIONS TO VISIBILITY.

* THESE STATIONS ARE NOT UNDER NWS QUALITY CONTROL. THEY ALSO MAY NOT
  REPORT WEATHER SUCH AS PRECIPITATION OR FOG.

ILZ001-002-007-009-015-016-024-310000-
NORTHWEST ILLINOIS

CITY           SKY/WX    TMP DP  RH WIND       PRES   REMARKS
MOLINE         SUNNY     81  67  62 W7        29.86S HX  83
STERLING*      SUNNY     81  66  61 W9        29.87R HX  83
SAVANNA*       SUNNY     80  65  60 SW7       29.86R HX  82
$$

ILZ003-004-008-010-011-017-018-310000-
NORTH CENTRAL ILLINOIS

CITY           SKY/WX    TMP DP  RH WIND       PRES   REMARKS
ROCKFORD       MOSUNNY   79  66  64 W12       29.86S HX  81
FREEPORT*      SUNNY     78  68  72 SW8       29.88R HX  80
ROCHELLE*      SUNNY     79  65  61 W13       29.87R HX  81
DE KALB*       SUNNY     77  65  65 W14       29.87S
PERU*          MOSUNNY   82  68  63 W8        29.87R HX  84
$$

ILZ005-006-012>014-019>023-310000-
NORTHEAST ILLINOIS

CITY           SKY/WX    TMP DP  RH WIND       PRES   REMARKS
CHICAGO-OHARE  PTSUNNY   82  64  54 W15       29.84R HX  83
CHICAGO-MIDWAY PTSUNNY   84  66  54 W14       29.84S HX  86
AURORA         MOSUNNY   80  66  62 W9G18     29.86R HX  82
LANSING*         N/A    N/A N/A N/A MISG        N/A
JOLIET*        PTSUNNY   82  65  56 W9        29.86S HX  83
WAUKEGAN       MOSUNNY   79  65  62 SW8G20    29.83R HX  81
DUPAGE AIRPORT MOSUNNY   81  67  62 W12       29.85S HX  83
KANKAKEE*      PTSUNNY   80  72  76 S9G16     29.87S HX  83
WHEELING       SUNNY     83  64  52 W10       29.86R HX  84
MORRIS*        PTSUNNY   82  69  64 W7        29.85S HX  86
ROMEOVILLE*    MOSUNNY   80  65  60 W9        29.86S HX  82
NORTHERLY ISL    N/A     83  63  50 W15         N/A  HX  84
$$

LMZ740>746-310000-
SOUTHERN LAKE MICHIGAN

STATION/POSITION SKY/WX   TEMP    WIND        PRES    VSBY  WAVE
                          AIR SEA DIR/SP/G                  HT/PER
                          (F)     (DEG/KT/KT) (MB)    (MI)  (FT/S)
SOUTHERN BUOY              73 69  230/ 10/ 10 1009.8R         2/ 5
WAUKEGAN HARBOR            80     260/ 18/ 25   N/A
HARRISON CRIB              81     250/ 19/ 22   N/A
BURNHAM HARBOR             82     290/ 12/ 15   N/A
CALUMET HARBOR             83     240/  6/ 14 1009.5F
MICHIGAN CITY              78     180/ 10/ 14   N/A
MICHIGAN CITY 6N           75 72  240/  8/ 12   N/A           2/ 4
ST. JOSEPH                 75 71  240/ 12/ 16   N/A           3/ 4
$$

ILZ025>027-034>036-040-047-049-050-058-095>099-310000-
WEST-CENTRAL ILLINOIS

CITY           SKY/WX    TMP DP  RH WIND       PRES   REMARKS
QUINCY         MOSUNNY   84  69  60 NW6       29.87S HX  88
GALESBURG*       N/A     84  69  59 W7        29.88R HX  87
MACOMB*        SUNNY     82  69  64 W5        29.89S HX  85
JACKSONVILLE*  PTSUNNY   83  73  71 S6        29.90R HX  90
PITTSFIELD*    PTSUNNY   83  70  66 S5        29.90R HX  87
$$

ILZ028>032-037-038-041>044-048-051>054-059>061-310000-
CENTRAL ILLINOIS

CITY           SKY/WX    TMP DP  RH WIND       PRES   REMARKS
PONTIAC        CLOUDY    81  73  78 SW5       29.86F HX  85
DECATUR        MOSUNNY   81  71  71 S12G21    29.90S HX  85
PEORIA         MOSUNNY   85  69  58 NW5       29.87S HX  89
LACON*         MOSUNNY   83  66  56 W6        29.86R HX  85
LINCOLN*       PTSUNNY   83  71  66 SW3       29.85R HX  88
SPRINGFIELD    PTSUNNY   83  72  69 VRB5      29.88R HX  88
TAYLORVILLE    MOSUNNY   79  72  78 S8G16     29.90S HX  82
$$

ILZ033-039-045-046-055>057-062-063-310000-
EAST-CENTRAL ILLINOIS

CITY           SKY/WX    TMP DP  RH WIND       PRES   REMARKS
CHAMPAIGN      PTSUNNY   80  71  74 S16       29.91S HX  84
DANVILLE*      RAIN      77  73  85 S14G22    29.89F
RANTOUL*       PTSUNNY   82  71  68 S15G22    29.90F HX  86
MATTOON        CLOUDY    78  71  79 S12       29.92F HX  80
PARIS*         CLOUDY    77  71  82 S12G22    29.94S
$$

ILZ079-100>102-310000-
SOUTHWEST ILLINOIS

CITY           SKY/WX    TMP DP  RH WIND       PRES   REMARKS
ALTON          PTSUNNY   81  72  74 SE7       29.91S HX  84
BELLEVILLE     PTSUNNY   81  73  76 E8G17     29.90F HX  86
CAHOKIA*       MOSUNNY   82  72  71 SE7       29.90S HX  87
SPARTA*        PTSUNNY   79  72  78 S12       29.94R HX  83
$$

ILZ064>066-069>071-074>076-080>082-084>086-088>090-092>094-310000-
SOUTH-CENTRAL ILLINOIS

CITY           SKY/WX    TMP DP  RH WIND       PRES   REMARKS
CARBONDALE     CLOUDY    76  71  85 S8        29.95S
CAIRO*         CLOUDY    79  70  73 S7        29.99S HX  81
EFFINGHAM*     PTSUNNY   79  69  69 S9        29.94S HX  82
MARION         PTSUNNY   75  72  88 S8        29.98S
MT. VERNON     CLOUDY    79  70  73 S8        29.96S HX  81
CENTRALIA*     CLOUDY    79  72  78 S12       29.95S HX  82
SALEM*         PTSUNNY   80  74  82 S10       29.95S HX  85
METROPOLIS*    CLOUDY    76  73  88 SE6       30.00R
$$

ILZ067-068-072-073-078-083-087-091-310000-
SOUTHEAST ILLINOIS

CITY           SKY/WX    TMP DP  RH WIND       PRES   REMARKS
LAWRENCEVILLE  CLOUDY    76  72  87 S10       29.97S
FLORA*         CLOUDY    76  70  83 S9        29.96S
FAIRFIELD*     CLOUDY    77  75  94 S9        29.96S
HARRISBURG*    CLOUDY    75  74  96 S12       29.98F
ROBINSON*      CLOUDY    78  74  87 S7        29.96F HX  80
CARMI*         CLOUDY    75  73  93 S7        29.97F
$$

ABBREVIATIONS USED IN REMARKS
   TC - TEMPERATURE IN CELSIUS
  WCI - WIND CHILL INDEX
   HX - HEAT INDEX
  VSB - VISIBILITY
$$




USA.gov is the U.S. government's official web portal to all federal, state and local government web resources and services.